Palm Springs International Airport Palm Springs US
ICAO: KPSP
IATA: PSP
Category: Medium
Scheduled Services: Yes

Elevation: 477 ft
TransAlt. 18000 ft.

Airport Communications:
APP/DEP:126.7
ATIS:118.25
CLNC DEL:128.35
CTAF:119.7
GND:121.9
RIVERSIDE RDO:115.5
TWR:119.7
UNICOM:122.95

KPSP Zoom In..

If you have problems with the map follow the link
https://www.worldairports.se/pages/airport.php?
ICAO=KPSP

Runways:

(A) RW 13L length 4952 ft width 75 ft
---- / hdg 130

(B) RW 13R length 10001 ft width 150 ft
---- / hdg 130

(C) RW 31L length 10001 ft width 150 ft
---- / hdg 310

(D) RW 31R length 4952 ft width 75 ft
---- / hdg 310

Location; KPSP
Day. 19 / Time. 19.53 Zulu
* Altimeter: 30.01
* Temperature: 26° c. 78.8°f.
* Wind from: 150° Speed 06 kn.
Dewpoint: -01° c.
Visibility: 10 Statute Miles.
Clouds: Clear (automated report).

KPSP 191953Z 15006KT 10SM CLR 26/M01 A3001 RMK AO2 SLP161 T02561006 $


Wind From 150°
Speed 06 kn.

 
 
jpsmedia worldairports.se 2020   terms of use